Starlink 11623

operational
NORAD ID: 63276 Int'l Des: 2025-053 Owner: SPXS Country: US Constellation: starlink
LEOCIRCULAR

Über Starlink 11623

Beschreibung wird geladen...

Live-Position

3D-Globus wird geladen...

Nächste Überflüge

Höhenverlauf

Altitude vs Time

uPlot chart will show altitude changes over time

Zweizeiliger Elementsatz

1 63276U 25053M 25260.47598687 .00342334 00000-0 25464-2 0 9990
2 63276 42.9992 76.6503 0001740 256.7749 103.2924 15.70994768 30415
Epoch: 17. Sept. 2025 • Age: 20 hours

Aktueller Status

Höhe 354.0 km
Geschwindigkeit 7.70 km/s
Subsatellitenpunkt 5.78°N, 29°W
Startdatum 15. März 2025
Alter 0.5 years
Typ internet

Technische Details

Klassifizierung Payload
Masse 960.00 kg
Trockenmasse 910.00 kg
Gesamtmasse 960.00 kg
Länge 0.30 m
Durchmesser 4.10 m
Spannweite 29.00 m
Form Box + pan
Hersteller SPXS
Bus-Typ Starlink V2MD
Phasenstatus In Orbit
Besitzer/Staat SPXS/US

Große Konstellationen

Loading constellations...